[[{"header":{"parameterUnit":"m.s-1","parameterCategory":1,"la1":30.2991,"la2":30.254,"lo1":-89.0895,"lo2":-89.0444,"dy":0.0017,"dx":0.0017,"nx":28,"ny":28,"refTime":"2023-10-22T21:00:00:Z","depth":0,"parameterNumber":2,"parameterNumberName":"U-component_of_WINDS"},"data":[0,0,0,0,0,0,0,0,0,0,0,0,0,0,0,0,0,0,0,0,0,0,0,0,0,0,0,0,0,0,0,0,0,0,0,0,0,0,0,0,0,0,0,0,0,0,0,0,0,0,0,0,0,0,0,0,0,0,0.6224,0.6224,0,0.6245,0.6246,0.6246,0.6286,0.6287,0.6288,0.6289,0.6308,0.6308,0.6308,0,0,0,0,0,0,0,0,0,0,0,0,0,0.6217,0.6217,0.6224,0.6224,0.6224,0.6245,0.6246,0.6246,0.6286,0.6287,0.6288,0.6289,0.6309,0.6308,0.6308,0,0,0,0,0,0,0,0,0,0,0,0,0,0.6227,0.6217,0.6224,0.6247,0.6249,0.6245,0.6246,0.6246,0.6286,0.6287,0.6288,0.6289,0.6309,0.6308,0.6308,0.6282,0,0,0.6307,0.6307,0,0,0,0,0,0,0,0,0.6227,0.6227,0.6243,0.6245,0.6248,0.6264,0.625,0.6258,0.6286,0.6272,0.6289,0.629,0.6293,0.6294,0.6295,0.6283,0.6284,0.6307,0.6307,0.6307,0.6307,0,0,0,0,0,0,0,0.6226,0.6227,0.6232,0.6244,0.6246,0.6256,0.6259,0.6252,0.6275,0.6273,0.6276,0.6278,0.6294,0.6295,0.6296,0.6284,0.6307,0.6307,0.6306,0.6306,0.6253,0.6252,0,0,0,0,0,0,0.6222,0.6226,0.6232,0.6233,0.624,0.6255,0.6258,0.6258,0.6276,0.6279,0.6277,0.628,0.6295,0.6296,0.6297,0.6267,0.6307,0.6306,0.6306,0.6254,0.6253,0.6251,0,0,0,0,0,0,0.6222,0.6222,0.6231,0.623,0.6232,0.6254,0.6253,0.6258,0.6259,0.6279,0.6283,0.6274,0.6296,0.6297,0.6286,0.6269,0.6306,0.6306,0.6255,0.6254,0.6252,0.6209,0,0,0,0,0,0,0.6221,0.6222,0.6212,0.623,0.6232,0.6219,0.6252,0.6257,0.6258,0.6262,0.6277,0.628,0.6297,0.6286,0.6285,0.6269,0.6306,0.6257,0.6255,0.6252,0.6212,0.6206,0.62,0,0,0,0,0,0.6221,0.6198,0.6211,0.6212,0.6221,0.6218,0.622,0.624,0.6257,0.6247,0.626,0.628,0.6271,0.6284,0.6284,0.6267,0.6258,0.6255,0.6253,0.6214,0.6207,0.6201,0,0,0,0,0,0,0.6177,0.6201,0.6216,0.6198,0.6206,0.6225,0.6213,0.6231,0.6234,0.6237,0.6262,0.6265,0.625,0.6258,0.6273,0.6244,0.6268,0.6265,0.6239,0.6232,0.6226,0.6224,0.6305,0,0,0,0,0,0.6165,0.6162,0.6183,0.6166,0.6169,0.6191,0.6191,0.6206,0.6215,0.6218,0.623,0.6237,0.6236,0.6235,0.6235,0.6214,0.6217,0.6202,0.6197,0.6192,0.6188,0.6178,0.6171,0.6242,0.6242,0.6242,0,0,0.6141,0.6154,0.615,0.6158,0.6165,0.6161,0.6193,0.6187,0.6184,0.6217,0.6207,0.6216,0.6226,0.621,0.6203,0.6215,0.617,0.6189,0.6185,0.6184,0.6175,0.6168,0.6162,0.624,0.6241,0.6241,0,0,0.6094,0.6104,0.6091,0.6099,0.6111,0.6125,0.6122,0.6139,0.6147,0.6138,0.6162,0.6159,0.6157,0.6163,0.6166,0.6124,0.6141,0.6123,0.6093,0.6082,0.6077,0.6072,0.6056,0.605,0.612,0.612,0.612,0,0.6062,0.6057,0.6082,0.6074,0.6077,0.6108,0.6095,0.6101,0.6112,0.6113,0.6127,0.6126,0.6135,0.612,0.611,0.6112,0.6108,0.612,0.6076,0.6071,0.6067,0.6052,0.6046,0.6118,0.6118,0.6118,0.6118,0,0.6017,0.6013,0.6001,0.6012,0.6013,0.6003,0.6026,0.6024,0.604,0.6054,0.6044,0.6056,0.606,0.6058,0.6073,0.6046,0.6053,0.6071,0.6096,0.6057,0.6044,0.6039,0.6114,0.6115,0.6116,0.6116,0,0,0.594,0.5967,0.5962,0.5967,0.5984,0.5981,0.5973,0.5977,0.5975,0.5983,0.5975,0.5974,0.5991,0.5995,0.6011,0.6002,0.5967,0.6022,0.6022,0.601,0.5938,0.5923,0.5916,0.5981,0.598,0.5979,0.5937,0,0.5896,0.5883,0.5906,0.5887,0.5884,0.5915,0.5908,0.5917,0.593,0.5929,0.5943,0.5941,0.5964,0.5967,0.5959,0.5973,0.5953,0.5977,0.5973,0.5973,0.5968,0.5909,0.5893,0.5852,0.5932,0.5931,0.593,0,0.5841,0.5847,0.5828,0.5847,0.5847,0.584,0.5846,0.5845,0.5857,0.5867,0.5871,0.5891,0.5884,0.591,0.59,0.5916,0.5916,0.5923,0.5922,0.5921,0.5948,0.5905,0.584,0.5833,0.5922,0.5923,0.5924,0,0.5786,0.5789,0.5779,0.5783,0.5805,0.5799,0.5808,0.5821,0.5822,0.5828,0.5829,0.5834,0.5836,0.5839,0.586,0.5877,0.5848,0.5875,0.5855,0.5854,0.5845,0.5845,0.5778,0.5848,0.5848,0.5849,0.5849,0,0.5733,0.572,0.5754,0.5747,0.5734,0.5761,0.5747,0.5759,0.5771,0.5767,0.5794,0.579,0.5819,0.5817,0.5834,0.5823,0.5824,0.5831,0.5836,0.5828,0.5827,0.5827,0.5829,0.5847,0.5847,0.5848,0.5848,0,0.5668,0.569,0.5681,0.5703,0.5709,0.5698,0.5717,0.5711,0.5727,0.5722,0.5722,0.5746,0.5746,0.5768,0.5772,0.5784,0.5765,0.5775,0.5761,0.5764,0.5742,0.5743,0.5671,0.5663,0.574,0.5739,0.5739,0,0.5631,0.5622,0.5644,0.5644,0.5652,0.5651,0.5653,0.568,0.5681,0.5695,0.5688,0.5691,0.5694,0.5693,0.571,0.5714,0.5723,0.5698,0.5724,0.5716,0.5721,0.5721,0.572,0.5691,0.569,0.569,0.5689,0,0.5564,0.5576,0.5579,0.5585,0.5587,0.5594,0.5602,0.56,0.563,0.5629,0.563,0.5633,0.5639,0.5641,0.5648,0.5657,0.5677,0.5681,0.5677,0.5668,0.5659,0.5662,0.5744,0.5682,0.5683,0.5683,0.5684,0.5684,0.5511,0.5505,0.552,0.5522,0.5531,0.5538,0.5535,0.5551,0.5552,0.5559,0.5575,0.5574,0.5587,0.5599,0.5606,0.5605,0.5618,0.5611,0.5609,0.5607,0.5602,0.5661,0.5607,0.5607,0.5607,0.5607,0.5608,0,0.5444,0.5456,0.5458,0.5469,0.547,0.5492,0.5503,0.5502,0.5501,0.5512,0.5515,0.5516,0.5519,0.5538,0.5543,0.5538,0.5548,0.5538,0.5538,0.554,0.5591,0.5594,0.5531,0.5531,0.5531,0.5531,0.5531,0.5531,0.5409,0.5399,0.5414,0.5409,0.5421,0.542,0.5424,0.5431,0.544,0.5441,0.5444,0.5457,0.5471,0.5477,0.5481,0.5486,0.5486,0.5473,0.5481,0.5529,0.5536,0.5543,0.5546,0.5473,0.5473,0.543,0.543,0.5429]},{"header":{"parameterUnit":"m.s-1","parameterCategory":1,"la1":30.2991,"la2":30.254,"lo1":-89.0895,"lo2":-89.0444,"dy":0.0017,"dx":0.0017,"nx":28,"ny":28,"refTime":"2023-10-22T21:00:00:Z","depth":0,"parameterNumber":3,"parameterNumberName":"V-component_of_WINDS"},"data":[0,0,0,0,0,0,0,0,0,0,0,0,0,0,0,0,0,0,0,0,0,0,0,0,0,0,0,0,0,0,0,0,0,0,0,0,0,0,0,0,0,0,0,0,0,0,0,0,0,0,0,0,0,0,0,0,0,0,-0.4701,-0.4701,0,-0.4784,-0.4785,-0.4786,-0.4811,-0.4811,-0.4811,-0.481,-0.4896,-0.4898,-0.4901,0,0,0,0,0,0,0,0,0,0,0,0,0,-0.4564,-0.4566,-0.47,-0.4702,-0.4703,-0.4784,-0.4785,-0.4786,-0.4812,-0.4811,-0.481,-0.481,-0.4895,-0.4898,-0.4901,0,0,0,0,0,0,0,0,0,0,0,0,0,-0.4633,-0.4567,-0.47,-0.4725,-0.4728,-0.4784,-0.4785,-0.4787,-0.4812,-0.4811,-0.481,-0.481,-0.4894,-0.4898,-0.4902,-0.4939,0,0,-0.4914,-0.4916,0,0,0,0,0,0,0,0,-0.4629,-0.4638,-0.472,-0.4723,-0.4727,-0.4787,-0.4768,-0.4838,-0.4812,-0.478,-0.481,-0.4809,-0.486,-0.4867,-0.4884,-0.4943,-0.4946,-0.4914,-0.4917,-0.4918,-0.4919,0,0,0,0,0,0,0,-0.4624,-0.4634,-0.4734,-0.4722,-0.4726,-0.4732,-0.4741,-0.4781,-0.4822,-0.4783,-0.4785,-0.4794,-0.4862,-0.488,-0.4886,-0.4948,-0.4914,-0.4918,-0.492,-0.4922,-0.5043,-0.5044,0,0,0,0,0,0,-0.4615,-0.463,-0.4731,-0.4736,-0.4675,-0.4735,-0.4745,-0.4768,-0.4822,-0.483,-0.4795,-0.4795,-0.4873,-0.4881,-0.4889,-0.4937,-0.4918,-0.4922,-0.4924,-0.5042,-0.5043,-0.5044,0,0,0,0,0,0,-0.4612,-0.4624,-0.4728,-0.4684,-0.4697,-0.4738,-0.4764,-0.477,-0.4788,-0.4831,-0.4839,-0.4806,-0.4873,-0.4883,-0.4927,-0.4941,-0.4924,-0.4928,-0.5041,-0.5042,-0.5043,-0.5033,0,0,0,0,0,0,-0.4608,-0.4622,-0.4637,-0.4684,-0.47,-0.4763,-0.4764,-0.4772,-0.4795,-0.4797,-0.4843,-0.4851,-0.4873,-0.492,-0.493,-0.4946,-0.4931,-0.504,-0.5042,-0.5043,-0.5032,-0.5034,-0.5035,0,0,0,0,0,-0.4603,-0.463,-0.4637,-0.4649,-0.4718,-0.4764,-0.4773,-0.4799,-0.4796,-0.4811,-0.4839,-0.4849,-0.4937,-0.4925,-0.4936,-0.4953,-0.5039,-0.5041,-0.5043,-0.5032,-0.5033,-0.5035,0,0,0,0,0,0,-0.4584,-0.4637,-0.4645,-0.4689,-0.4722,-0.4768,-0.4788,-0.48,-0.4834,-0.4834,-0.4864,-0.4875,-0.4916,-0.4939,-0.4924,-0.4992,-0.4989,-0.4993,-0.4976,-0.4978,-0.4979,-0.4974,-0.4934,0,0,0,0,0,-0.4584,-0.4617,-0.4662,-0.4696,-0.4712,-0.4747,-0.4768,-0.4785,-0.482,-0.4834,-0.4865,-0.4899,-0.4935,-0.4958,-0.4992,-0.5035,-0.5047,-0.5053,-0.5054,-0.5055,-0.5058,-0.5084,-0.5088,-0.505,-0.505,-0.505,0,0,-0.4586,-0.462,-0.4638,-0.4693,-0.472,-0.4754,-0.4759,-0.4794,-0.4819,-0.484,-0.4883,-0.4906,-0.4947,-0.499,-0.5011,-0.501,-0.5071,-0.5057,-0.5057,-0.5061,-0.5086,-0.509,-0.5093,-0.5051,-0.5051,-0.5051,0,0,-0.4608,-0.4635,-0.4668,-0.4695,-0.4737,-0.476,-0.4768,-0.4813,-0.483,-0.4873,-0.489,-0.492,-0.498,-0.5009,-0.5031,-0.5063,-0.5075,-0.5074,-0.5081,-0.5106,-0.5109,-0.5112,-0.5124,-0.5128,-0.5077,-0.5077,-0.5077,0,-0.4605,-0.4656,-0.4682,-0.4717,-0.4741,-0.4761,-0.4794,-0.482,-0.4871,-0.4887,-0.4885,-0.4962,-0.499,-0.5042,-0.5049,-0.5066,-0.5077,-0.5069,-0.5106,-0.5109,-0.5112,-0.5125,-0.5129,-0.5077,-0.5077,-0.5077,-0.5077,0,-0.4651,-0.4687,-0.4707,-0.4757,-0.4783,-0.4816,-0.4848,-0.4871,-0.4886,-0.4909,-0.4954,-0.4989,-0.5032,-0.5045,-0.5059,-0.5098,-0.5097,-0.51,-0.5097,-0.5115,-0.5128,-0.5133,-0.5076,-0.5076,-0.5077,-0.5077,0,0,-0.4663,-0.4727,-0.4734,-0.4757,-0.4805,-0.4833,-0.4868,-0.491,-0.493,-0.4964,-0.4994,-0.5045,-0.5049,-0.5074,-0.5092,-0.5113,-0.5138,-0.5115,-0.5116,-0.5119,-0.5185,-0.5183,-0.5188,-0.5146,-0.5147,-0.5147,-0.5182,0,-0.4692,-0.4755,-0.478,-0.4831,-0.4864,-0.4884,-0.4915,-0.4947,-0.497,-0.5002,-0.5027,-0.5064,-0.5065,-0.5081,-0.5103,-0.5131,-0.5152,-0.5128,-0.5175,-0.5177,-0.5166,-0.5194,-0.5192,-0.5223,-0.5187,-0.5188,-0.5188,0,-0.4733,-0.4769,-0.4823,-0.4868,-0.4883,-0.491,-0.4951,-0.4981,-0.5018,-0.5034,-0.5062,-0.5079,-0.5116,-0.511,-0.5163,-0.5146,-0.5167,-0.5184,-0.5185,-0.5192,-0.5184,-0.5203,-0.5234,-0.5239,-0.5196,-0.5195,-0.5195,0,-0.4738,-0.4799,-0.484,-0.4859,-0.4912,-0.493,-0.4953,-0.499,-0.5014,-0.505,-0.5066,-0.5105,-0.5127,-0.5158,-0.5185,-0.5178,-0.5236,-0.5232,-0.525,-0.525,-0.5263,-0.5262,-0.5298,-0.5273,-0.5273,-0.5273,-0.5273,0,-0.4768,-0.4801,-0.4843,-0.4869,-0.4906,-0.4935,-0.4971,-0.4996,-0.5029,-0.5059,-0.5078,-0.5107,-0.514,-0.5173,-0.5195,-0.5236,-0.5245,-0.5259,-0.5265,-0.5258,-0.5257,-0.5273,-0.5272,-0.5275,-0.5274,-0.5274,-0.5274,0,-0.478,-0.481,-0.4856,-0.4902,-0.4914,-0.494,-0.498,-0.5006,-0.5029,-0.5068,-0.5079,-0.5116,-0.5156,-0.5186,-0.5237,-0.5252,-0.5296,-0.5301,-0.5284,-0.5287,-0.5304,-0.5303,-0.5354,-0.5363,-0.533,-0.5331,-0.5331,0,-0.4798,-0.4824,-0.4873,-0.4895,-0.4918,-0.4953,-0.4978,-0.5006,-0.5031,-0.5077,-0.5097,-0.5138,-0.5173,-0.5236,-0.5268,-0.5307,-0.5314,-0.533,-0.5321,-0.5314,-0.5316,-0.5315,-0.5318,-0.5331,-0.5331,-0.5332,-0.5332,0,-0.4827,-0.484,-0.4875,-0.4915,-0.4944,-0.4977,-0.501,-0.5027,-0.5062,-0.509,-0.5131,-0.5157,-0.521,-0.5251,-0.5294,-0.5318,-0.5331,-0.5334,-0.5341,-0.5335,-0.5325,-0.5332,-0.5288,-0.5333,-0.5333,-0.5333,-0.5333,-0.5333,-0.4843,-0.4868,-0.4906,-0.4945,-0.4973,-0.5004,-0.503,-0.5058,-0.5092,-0.5138,-0.5153,-0.5195,-0.5233,-0.5293,-0.5317,-0.5351,-0.5351,-0.536,-0.5363,-0.5365,-0.5365,-0.5318,-0.5359,-0.5359,-0.5359,-0.5359,-0.5359,0,-0.4874,-0.49,-0.4935,-0.4981,-0.5012,-0.5021,-0.5058,-0.5083,-0.5121,-0.5155,-0.5189,-0.5236,-0.5276,-0.5312,-0.5353,-0.5374,-0.5381,-0.5384,-0.5384,-0.5389,-0.5362,-0.5353,-0.5378,-0.5378,-0.5378,-0.5378,-0.5378,-0.5378,-0.4894,-0.4936,-0.4954,-0.5011,-0.5037,-0.5079,-0.51,-0.5129,-0.5156,-0.5209,-0.5242,-0.5265,-0.53,-0.5344,-0.5381,-0.5391,-0.5406,-0.5408,-0.5419,-0.5393,-0.5391,-0.5389,-0.538,-0.541,-0.541,-0.5443,-0.5443,-0.5443]}]]